Weather Roundup
Issued by NWS Springfield, MO

Home | Current Version | Previous Version | Text Only | Print | Product List | Glossary On
Versions: 1 2 3 4 5 6 7 8 9 10 11 12 13 14 15 16 17 18 19 20 21 22 23 24 25 26 27 28 29 30 31 32 33 34 35 36 37 38 39 40 41 42 43 44 45 46 47 48 49 50
000
NZUS99 KSGF 212257
HRRSGF

HOURLY WEATHER
NATIONAL WEATHER SERVICE SPRINGFIELD MO
600 PM CDT SAT OCT 21 2017

......SGF CWA......

CITY           SKY/WX    TMP DP  RH WIND       PRES   REMARKS
SPRINGFIELD    PTCLDY    76  63  64 S16       29.89F
JOPLIN         CLOUDY    76  64  66 S10       29.86R
WEST PLAINS    MOCLDY    74  65  73 S12G20    30.01S
ROLLA          MOCLDY    74  64  71 S16G23    29.96S
BRANSON        MOCLDY    73  63  68 S13       29.96S

......SURROUNDING SGF CWA......

CITY           SKY/WX    TMP DP  RH WIND       PRES   REMARKS
CHANUTE        CLOUDY    76  64  66 S16       29.80S
PARSONS        CLOUDY    76  64  66 S9        29.82S
COFFEYVILLE    CLOUDY    76  64  66 S17G25    29.81S
EMPORIA        TSTM      57  55  93 NE7       29.79F
HARRISON AR    CLOUDY    72  65  78 SE10      29.97R

......KANSAS AND MISSOURI......

CITY           SKY/WX    TMP DP  RH WIND       PRES   REMARKS
KANSAS CTY INT CLOUDY    73  65  75 SE14      29.78F
SEDALIA        MOCLDY    77  65  66 S14       29.87S
ST JOSEPH      TSTM      65  60  84 S18G33    29.78R VSB 1/2
ST LOUIS       MOCLDY    78  61  55 S15       29.98R
WICHITA        LGT RAIN  61  59  93 E8        29.80S
TOPEKA         TSTM      63  62  97 W5        29.78F
OLATHE         CLOUDY    72  65  78 S12       29.80F

......TENNESSEE......

CITY           SKY/WX    TMP DP  RH WIND       PRES   REMARKS
MEMPHIS        NOT AVBL
NASHVILLE      MOCLDY    73  56  54 SE7       30.17S

......ARKANSAS.......

CITY           SKY/WX    TMP DP  RH WIND       PRES   REMARKS
FAYETTEVILLE   MOCLDY    74  67  78 SE9G17    29.91F
FT SMITH       MOCLDY    80  67  64 SE12      29.88S
LITTLE ROCK    MOCLDY    77  71  82 S5        29.97S

......OKLAHOMA.......

CITY           SKY/WX    TMP DP  RH WIND       PRES   REMARKS
TULSA          MOCLDY    78  66  66 S17G25    29.80S
PONCA CITY     CLOUDY    76  64  66 S7        29.77F
MCALESTER      CLOUDY    81  65  58 S8G17     29.85F
OKLAHOMA CITY  CLOUDY    75  65  70 SE13      29.79F

......IOWA............

CITY           SKY/WX    TMP DP  RH WIND       PRES   REMARKS
DES MOINES     NOT AVBL
QUAD CITIES    CLOUDY    77  59  53 S16G23    29.88S

......ILLINOIS........

CITY           SKY/WX    TMP DP  RH WIND       PRES   REMARKS
QUINCY         NOT AVBL
CHICAGO        MOCLDY    74  58  57 S18       29.99R




USA.gov is the U.S. government's official web portal to all federal, state and local government web resources and services.